TELKOM 2

Last updated on Tue Jul 06 2021 15:28:52 GMT+0000 (Coordinated Universal Time)

1 28902U 05046A 21187.15535462 -.00000021 00000-0 00000+0 0 9999 2 28902 0.1150 97.1235 0000147 278.9171 347.1022 0.99148326 57120
UTC large
Height (km)
Speed (km/s)
/
Latitude / Longitude
Inclination (degrees)
Orbital Period (minutes)
Azimuth
Elevation
Range (km)
Doppler Factor

Next 0 passes for location: London (51.5072 / 0.1276)

Sorry there are no passes over London.